This demonstration page uses our WeatherBlox Daily Observations layout. Learn more.

Left ArrowRight Arrow

39.01783, -85.05884

Hourly Observations for January 29, 2020

Temp ( °F °C ) Dew Point ( °F °C ) Humidity (%) Winds ( mph kmh ) Pressure ( in mb ) Visibility ( mi km ) Precip ( " mm )
12:52 am 00:52 Cloudy 33 0.6 28 -2.2 82 82 NNW 5 7 30.11 1020 9 14 0.00 0.00
1:52 am 01:52 Cloudy 34 1.1 26 -3.3 73 73 NNE 5 7 30.11 1020 10 16 0.00 0.00
2:52 am 02:52 Cloudy 33 0.6 26 -3.3 75 75 Calm 30.11 1020 10 16 0.00 0.00
3:52 am 03:52 Cloudy 33 0.6 27 -2.8 78 78 NE 5 7 30.11 1020 9 14 0.00 0.00
4:52 am 04:52 Cloudy 33 0.6 27 -2.8 78 78 NNE 3 6 30.11 1020 7 11 0.00 0.00
5:52 am 05:52 Cloudy with Haze 33 0.6 28 -2.2 82 82 NE 5 7 30.12 1020 6 10 0.00 0.00
6:01 am 06:01 Cloudy with Haze 33 0.6 28 -2.2 82 82 NNE 6 9 30.15 1021 6 10 0.00 0.00
6:52 am 06:52 Cloudy 33 0.6 26 -3.3 75 75 NE 7 11 30.14 1021 9 14 0.00 0.00
7:52 am 07:52 Cloudy 33 0.6 26 -3.3 75 75 NE 7 11 30.15 1021 9 14 0.00 0.00
8:52 am 08:52 Cloudy with Haze 33 0.6 27 -2.8 78 78 ENE 6 9 30.16 1021 6 10 0.00 0.00
9:52 am 09:52 Cloudy 34 1.1 26 -3.3 73 73 ENE 6 9 30.17 1022 7 11 0.00 0.00
10:52 am 10:52 Cloudy 34 1.1 25 -3.9 70 70 E 9 15 30.17 1022 10 16 0.00 0.00
11:52 am 11:52 Cloudy 34 1.1 24 -4.4 67 67 ENE 10 17 30.16 1022 10 16 0.00 0.00
12:52 pm 12:52 Cloudy 34 1.1 23 -5 64 64 E 9 15 30.13 1020 10 16 0.00 0.00
1:52 pm 13:52 Cloudy 34 1.1 24 -4.4 67 67 E 7 11 30.11 1020 10 16 0.00 0.00
2:52 pm 14:52 Cloudy 34 1.1 25 -3.9 70 70 E 6 9 30.11 1020 10 16 0.00 0.00
3:52 pm 15:52 Cloudy 34 1.1 25 -3.9 70 70 E 7 11 30.11 1020 10 16 0.00 0.00
4:52 pm 16:52 Cloudy 34 1.1 25 -3.9 70 70 NE 8 13 30.12 1020 10 16 0.00 0.00
5:52 pm 17:52 Cloudy 34 1.1 25 -3.9 70 70 E 7 11 30.13 1020 10 16 0.00 0.00
6:52 pm 18:52 Cloudy 34 1.1 24 -4.4 67 67 ENE 8 13 30.15 1021 10 16 0.00 0.00
7:52 pm 19:52 Cloudy 34 1.1 24 -4.4 67 67 NE 6 9 30.15 1021 10 16 0.00 0.00
8:52 pm 20:52 Cloudy 34 1.1 24 -4.4 67 67 NNE 8 13 30.16 1021 10 16 0.00 0.00
9:52 pm 21:52 Cloudy 33 0.6 25 -3.9 72 72 NNE 8 13 30.16 1021 10 16 0.00 0.00
10:52 pm 22:52 Cloudy 34 1.1 24 -4.4 67 67 N 7 11 30.16 1021 10 16 0.00 0.00
11:52 pm 23:52 Cloudy 33 0.6 24 -4.4 70 70 ENE 7 11 30.16 1021 10 16 0.00 0.00

Powered by AerisWeather